This demonstration page uses our WeatherBlox Daily Observations layout. Learn more.

Left ArrowRight Arrow

39.08367, -84.50855

Hourly Observations for March 7, 2018

Temp ( °F °C ) Dew Point ( °F °C ) Humidity (%) Winds ( mph kmh ) Pressure ( in mb ) Visibility ( mi km ) Precip ( " mm )
12:28 am 00:28 Cloudy 42 5.6 33 0.6 71 71 N 10 17 29.77 1008 10 16.0934 0 0
12:53 am 00:53 Cloudy with Light Rain 37 2.8 33 0.6 86 86 NNW 10 17 29.76 1008 6 9.65604 0.03 0.762
1:19 am 01:19 Cloudy 37 2.8 32 0 82 82 NW 9 15 29.8 1009 10 16.0934 0 0.0254
1:53 am 01:53 Cloudy 36 2.2 32 0 86 86 WNW 7 11 29.78 1008 10 16.0934 0 0.0254
2:53 am 02:53 Cloudy 35 1.7 32 0 89 89 W 9 15 29.77 1008 10 16.0934 0 0.0254
3:53 am 03:53 Cloudy 34 1.1 29 -1.7 82 82 W 7 11 29.79 1009 10 16.0934 0 0
4:33 am 04:33 Cloudy with Light Snow 34 1.1 30 -1.1 85 85 W 13 20 29.83 1010 3 4.82802 0 0.0254
4:53 am 04:53 Cloudy with Light Snow 34 1.1 31 -0.6 89 89 W 10 17 29.8 1009 7 11.26538 0 0.0254
5:34 am 05:34 Cloudy 34 1.1 29 -1.7 82 82 W 15 24 29.85 1011 10 16.0934 0 0.0254
5:53 am 05:53 Cloudy 34 1.1 29 -1.7 82 82 W 12 19 29.82 1010 10 16.0934 0 0.0254
6:16 am 06:16 Cloudy 34 1.1 29 -1.7 82 82 W 14 22 29.85 1011 10 16.0934 0 0
6:53 am 06:53 Cloudy 33 0.6 27 -2.8 78 78 W 17 28 29.85 1011 10 16.0934 0 0
7:53 am 07:53 Cloudy 33 0.6 28 -2.2 82 82 WSW 14 22 29.88 1012 10 16.0934 0 0
8:53 am 08:53 Cloudy with Light Snow 33 0.6 31 -0.6 92 92 WSW 10 17 29.89 1012 2.5 4.02335 0.01 0.254
9:01 am 09:01 Cloudy with Mist and Fog 34 1.1 31 -0.6 89 89 WSW 13 20 29.91 1013 3 4.82802 0 0.0254
9:53 am 09:53 Cloudy 36 2.2 32 0 86 86 W 15 24 29.91 1013 10 16.0934 0 0.0254
10:53 am 10:53 Cloudy 37 2.8 29 -1.7 73 73 WNW 15 24 29.94 1014 10 16.0934 0 0.0254
11:53 am 11:53 Mostly Cloudy 40 4.4 28 -2.2 63 63 WNW 14 22 29.95 1014 10 16.0934 0 0.0254
12:53 pm 12:53 Mostly Cloudy 40 4.4 25 -3.9 55 55 W 17 28 29.96 1015 10 16.0934 0 0.0254
1:53 pm 13:53 Cloudy 39 3.9 23 -5 53 53 W 16 26 29.96 1015 10 16.0934 0 0
2:53 pm 14:53 Cloudy 38 3.3 21 -6.1 51 51 W 18 30 29.97 1015 10 16.0934 0 0
3:53 pm 15:53 Cloudy 38 3.3 21 -6.1 51 51 W 14 22 29.98 1015 10 16.0934 0 0
4:53 pm 16:53 Cloudy 39 3.9 23 -5 53 53 W 14 22 29.99 1016 10 16.0934 0 0
5:53 pm 17:53 Cloudy 38 3.3 21 -6.1 51 51 W 14 22 30 1016 10 16.0934 0 0
6:53 pm 18:53 Cloudy 38 3.3 23 -5 55 55 WNW 6 9 30.01 1016 10 16.0934 0 0
7:53 pm 19:53 Cloudy 36 2.2 26 -3.3 67 67 NW 9 15 30.03 1017 10 16.0934 0 0.0254
8:53 pm 20:53 Cloudy 36 2.2 23 -5 59 59 WNW 8 13 30.04 1017 10 16.0934 0 0
9:53 pm 21:53 Cloudy 35 1.7 20 -6.7 54 54 NW 5 7 30.04 1017 10 16.0934 0 0
10:53 pm 22:53 Cloudy 35 1.7 20 -6.7 54 54 WNW 5 7 30.04 1017 10 16.0934 0 0
11:53 pm 23:53 Cloudy 33 0.6 24 -4.4 70 70 NW 7 11 30.03 1017 10 16.0934 0 0

Powered by AerisWeather